User: anonymous   Login
Location: ???? ?????
(30.0052°N, 31.2891°E)
Time: 08:26:40
(UTC+00:00)
Language:

CZ-4B R/B - Orbit

View from above orbital plane
View from above orbital plane
View from above satellite
View from above satellite

Ground track
Ground track

The orbit data is extracted from the following two-line orbital elements,

1 32959U 08026B   22230.94808109  .00000131  00000-0  53409-4 0  9992
2 32959  98.9494 215.8304 0071203 102.0186 312.8470 14.41905868748502
Epoch (UTC): 18 August 2022 22:45:14
Eccentricity: 0.0071203
inclination: 98.9494°
perigee height: 701 km
apogee height: 803 km
right ascension of ascending node: 215.8304°
argument of perigee: 102.0186°
revolutions per day: 14.41905868
mean anomaly at epoch: 312.8470°
orbit number at epoch: 74850

The dashed part of the orbit path shows where the satellite is in the earth's shadow,  

DLR